loading
|

TITAN 3A TRANSTAGE R/B, 1001

Orbit data source: Space-Track

TITAN 3A TRANSTAGE R/B, 1001 is space debris originally from a launch on Thu, 11 Feb 1965 UTC via a TITAN IIIA launch vehicle from the Air Force Eastern Test Range (AFETR). Debris objects in space refer to the collection of defunct objects orbiting the Earth. Examples of debris include non-operational satellites, rocket bodies, and fragments generated from explosions, collisions, or faulty payload assembly.

Loading next visibility...
Loading greatness...
TITAN 3A TRANSTAGE R/B details
Identifier
1001, 1965-008A
Orbit
Active
Last TLE update2 days ago
Origin
Flag of USUSAF SSD (US)
ManufacturerMartin Marietta
Mission statusUnknown
MissionUnknown
Bus & MotorTRUSS, Unknown motor
Mass336 kg wet, 336 kg dry
Launch date (UTC)
1965-02-11 (60 years ago)
Launch vehicle
TITAN IIIA
Launch site
Air Force Eastern Test Range (AFETR)
Object type
Payload
Rocket body
Debris
Radar Cross Section11 m², Large (>1 m²)

Expand to show TLE details & history

TLE from 2 days ago
0 TITAN 3A TRANSTAGE R/B
1 01001U 65008A   24250.22088474  .00000001  00000-0 -89535-3 0  9994
2 01001  32.1422 213.6358 0017681  70.2447 289.9956  9.90723358157112
Epoch: 2024-09-06T05:18Z
Definitive object data (Epoch: 2024-09-06T05:18:04.441Z)
Latitude-0.00002°
Longitude148.32072°
Altitude2,772.601 km
Speed6.604 km/s
True Right ascension14h 14m 32s
True Declination0° 00' 00"
Sunlit
Object was in daylight at TLE epoch
Predictive object data (real-time)
Latitude21.08355°
Longitude-177.6503°
Altitude2,764.354 km
Speed6.611 km/s
Apparent Right ascension18h 22m 35s
Apparent Declination-4° 23' 48"
Sunlit
Object is in daylight
Predictive observer data (real-time)
Local Sidereal Time10:01:50
Azimuth69.181° E
Elevation-29.33°
Doppler factor1
Orbital elements
Apogee2,798.121 km
Perigee2,765.73 km
Semi-major axis9,160.062 km
Eccentricity0.0017681
Inclination32.1422°
RAAN213.6358°
Arg. of periapsis70.2447°
True anomaly289.80506°
Mean anomaly289.9956°
Eccentric anomaly289.90034°
Mean motion2.47569 °/min
BSTAR-0.00089535
Period145.41 mins
No data available
Other satellites on launch #8 in the year 1965 (1965-02-11 UTC)

TITAN 3A TRANSTAGE R/B Visibility forecast

Observer location: 39.9160978°, -105.1181434

TITAN 3A TRANSTAGE R/B is not visible in the next 10 days
Span
Click to sort rows by Start time (UTC) header in descending order
Start Az.
Max El. time (UTC)
Max El. Az.
Max El.
End time (UTC)
End Az.